Year,Month,Day,Hour,Minute,Value (Times are PST for windspeed in km/hr)
2020,03,04,00,00,3.50
2020,03,04,00,01,5.20
2020,03,04,00,02,3.60
2020,03,04,00,03,3.00
2020,03,04,00,04,2.60
2020,03,04,00,05,4.30
2020,03,04,00,06,6.60
2020,03,04,00,07,5.40
2020,03,04,00,08,3.70
2020,03,04,00,09,0.40
2020,03,04,00,10,0.00
2020,03,04,00,11,0.00
2020,03,04,00,12,0.00
2020,03,04,00,13,0.00
2020,03,04,00,14,0.00
2020,03,04,00,15,0.00
2020,03,04,00,16,0.00
2020,03,04,00,17,0.00
2020,03,04,00,18,0.00
2020,03,04,00,19,0.00
2020,03,04,00,20,0.00
2020,03,04,00,21,1.10
2020,03,04,00,22,3.40
2020,03,04,00,23,4.00
2020,03,04,00,24,2.80
2020,03,04,00,25,3.10
2020,03,04,00,26,3.30
2020,03,04,00,27,1.20
2020,03,04,00,28,0.80
2020,03,04,00,29,2.40
2020,03,04,00,30,4.60
2020,03,04,00,31,2.60
2020,03,04,00,32,1.70
2020,03,04,00,33,2.20
2020,03,04,00,34,4.10
2020,03,04,00,35,3.60
2020,03,04,00,36,5.90
2020,03,04,00,37,2.00
2020,03,04,00,38,5.50
2020,03,04,00,39,6.30
2020,03,04,00,40,4.80
2020,03,04,00,41,8.20
2020,03,04,00,42,4.50
2020,03,04,00,43,3.70
2020,03,04,00,44,4.70
2020,03,04,00,45,10.90
2020,03,04,00,46,10.20
2020,03,04,00,47,6.80
2020,03,04,00,48,7.30
2020,03,04,00,49,9.50
2020,03,04,00,50,10.40
2020,03,04,00,51,11.40
2020,03,04,00,52,10.80
2020,03,04,00,53,11.30
2020,03,04,00,54,12.10
2020,03,04,00,55,10.70
2020,03,04,00,56,7.50
2020,03,04,00,57,7.80
2020,03,04,00,58,10.70
2020,03,04,00,59,10.90
2020,03,04,01,00,10.10
2020,03,04,01,01,3.80
2020,03,04,01,02,7.80
2020,03,04,01,03,10.80
2020,03,04,01,04,9.50
2020,03,04,01,05,8.60
2020,03,04,01,06,5.90
2020,03,04,01,07,5.50
2020,03,04,01,08,10.10
2020,03,04,01,09,11.80
2020,03,04,01,10,11.40
2020,03,04,01,11,13.40
2020,03,04,01,12,12.40
2020,03,04,01,13,10.40
2020,03,04,01,14,13.00
2020,03,04,01,15,11.50
2020,03,04,01,16,12.20
2020,03,04,01,17,11.70
2020,03,04,01,18,7.70
2020,03,04,01,19,11.20
2020,03,04,01,20,9.00
2020,03,04,01,21,10.20
2020,03,04,01,22,10.10
2020,03,04,01,23,9.60
2020,03,04,01,24,8.90
2020,03,04,01,25,10.40
2020,03,04,01,26,9.50
2020,03,04,01,27,8.70
2020,03,04,01,28,8.60
2020,03,04,01,29,9.70
2020,03,04,01,30,12.30
2020,03,04,01,31,10.80
2020,03,04,01,32,14.40
2020,03,04,01,33,13.30
2020,03,04,01,34,13.10
2020,03,04,01,35,15.70
2020,03,04,01,36,13.70
2020,03,04,01,37,15.70
2020,03,04,01,38,14.20
2020,03,04,01,39,15.90
2020,03,04,01,40,15.10
2020,03,04,01,41,11.60
2020,03,04,01,42,12.80
2020,03,04,01,43,13.60
2020,03,04,01,44,11.30
2020,03,04,01,45,9.70
2020,03,04,01,46,9.00
2020,03,04,01,47,9.60
2020,03,04,01,48,10.20
2020,03,04,01,49,10.30
2020,03,04,01,50,8.10
2020,03,04,01,51,6.50
2020,03,04,01,52,6.50
2020,03,04,01,53,11.30
2020,03,04,01,54,9.30
2020,03,04,01,55,9.80
2020,03,04,01,56,12.10
2020,03,04,01,57,9.80
2020,03,04,01,58,9.20
2020,03,04,01,59,9.40
2020,03,04,02,00,10.00
2020,03,04,02,01,13.40
2020,03,04,02,02,13.50
2020,03,04,02,03,7.70
2020,03,04,02,04,6.90
2020,03,04,02,05,6.10
2020,03,04,02,06,4.60
2020,03,04,02,07,5.80
2020,03,04,02,08,6.40
2020,03,04,02,09,5.30
2020,03,04,02,10,6.40
2020,03,04,02,11,5.60
2020,03,04,02,12,6.70
2020,03,04,02,13,4.80
2020,03,04,02,14,3.40
2020,03,04,02,15,4.60
2020,03,04,02,16,6.80
2020,03,04,02,17,5.20
2020,03,04,02,18,3.50
2020,03,04,02,19,4.30
2020,03,04,02,20,5.60
2020,03,04,02,21,7.10
2020,03,04,02,22,4.20
2020,03,04,02,23,9.00
2020,03,04,02,24,9.40
2020,03,04,02,25,14.70
2020,03,04,02,26,13.50
2020,03,04,02,27,11.90
2020,03,04,02,28,9.80
2020,03,04,02,29,14.30
2020,03,04,02,30,11.90
2020,03,04,02,31,11.00
2020,03,04,02,32,11.50
2020,03,04,02,33,9.50
2020,03,04,02,34,9.00
2020,03,04,02,35,6.60
2020,03,04,02,36,7.10
2020,03,04,02,37,11.50
2020,03,04,02,38,14.50
2020,03,04,02,39,7.90
2020,03,04,02,40,8.60
2020,03,04,02,41,10.00
2020,03,04,02,42,8.10
2020,03,04,02,43,8.80
2020,03,04,02,44,9.70
2020,03,04,02,45,9.20
2020,03,04,02,46,12.20
2020,03,04,02,47,10.60
2020,03,04,02,48,11.50
2020,03,04,02,49,12.10
2020,03,04,02,50,11.30
2020,03,04,02,51,12.90
2020,03,04,02,52,10.20
2020,03,04,02,53,8.50
2020,03,04,02,54,6.90
2020,03,04,02,55,7.60
2020,03,04,02,56,7.90
2020,03,04,02,57,6.60
2020,03,04,02,58,7.40
2020,03,04,02,59,6.60
2020,03,04,03,00,7.40
2020,03,04,03,01,9.90
2020,03,04,03,02,7.40
2020,03,04,03,03,7.00
2020,03,04,03,04,8.50
2020,03,04,03,05,7.30
2020,03,04,03,06,8.70
2020,03,04,03,07,10.40
2020,03,04,03,08,10.80
2020,03,04,03,09,9.20
2020,03,04,03,10,7.90
2020,03,04,03,11,6.90
2020,03,04,03,12,4.60
2020,03,04,03,13,9.50
2020,03,04,03,14,11.00
2020,03,04,03,15,11.10
2020,03,04,03,16,11.30
2020,03,04,03,17,10.00
2020,03,04,03,18,10.30
2020,03,04,03,19,7.60
2020,03,04,03,20,11.10
2020,03,04,03,21,6.90
2020,03,04,03,22,8.80
2020,03,04,03,23,7.30
2020,03,04,03,24,9.20
2020,03,04,03,25,8.90
2020,03,04,03,26,8.00
2020,03,04,03,27,7.10
2020,03,04,03,28,8.20
2020,03,04,03,29,9.10
2020,03,04,03,30,7.90
2020,03,04,03,31,7.00
2020,03,04,03,32,8.60
2020,03,04,03,33,6.30
2020,03,04,03,34,4.60
2020,03,04,03,35,5.90
2020,03,04,03,36,5.40
2020,03,04,03,37,5.50
2020,03,04,03,38,6.30
2020,03,04,03,39,6.20
2020,03,04,03,40,4.50
2020,03,04,03,41,8.50
2020,03,04,03,42,6.30
2020,03,04,03,43,6.10
2020,03,04,03,44,7.50
2020,03,04,03,45,6.60
2020,03,04,03,46,6.60
2020,03,04,03,47,6.90
2020,03,04,03,48,6.60
2020,03,04,03,49,8.20
2020,03,04,03,50,6.40
2020,03,04,03,51,5.10
2020,03,04,03,52,6.40
2020,03,04,03,53,8.30
2020,03,04,03,54,8.70
2020,03,04,03,55,6.40
2020,03,04,03,56,7.40
2020,03,04,03,57,3.80
2020,03,04,03,58,5.40
2020,03,04,03,59,5.90
2020,03,04,04,00,4.10
2020,03,04,04,01,5.00
2020,03,04,04,02,5.80
2020,03,04,04,03,5.40
2020,03,04,04,04,3.80
2020,03,04,04,05,5.30
2020,03,04,04,06,5.20
2020,03,04,04,07,3.20
2020,03,04,04,08,3.20
2020,03,04,04,09,2.20
2020,03,04,04,10,2.50
2020,03,04,04,11,2.00
2020,03,04,04,12,1.20
2020,03,04,04,13,2.20
2020,03,04,04,14,1.70
2020,03,04,04,15,2.80
2020,03,04,04,16,4.00
2020,03,04,04,17,3.20
2020,03,04,04,18,3.60
2020,03,04,04,19,4.10
2020,03,04,04,20,5.30
2020,03,04,04,21,4.00
2020,03,04,04,22,5.80
2020,03,04,04,23,5.20
2020,03,04,04,24,4.80
2020,03,04,04,25,5.60
2020,03,04,04,26,5.10
2020,03,04,04,27,4.10
2020,03,04,04,28,5.00
2020,03,04,04,29,6.30
2020,03,04,04,30,5.60
2020,03,04,04,31,4.90
2020,03,04,04,32,6.20
2020,03,04,04,33,3.50
2020,03,04,04,34,2.10
2020,03,04,04,35,2.40
2020,03,04,04,36,3.10
2020,03,04,04,37,3.50
2020,03,04,04,38,4.10
2020,03,04,04,39,4.70
2020,03,04,04,40,3.20
2020,03,04,04,41,3.10
2020,03,04,04,42,2.70
2020,03,04,04,43,1.80
2020,03,04,04,44,2.00
2020,03,04,04,45,3.00
2020,03,04,04,46,2.90
2020,03,04,04,47,4.50
2020,03,04,04,48,3.30
2020,03,04,04,49,4.60
2020,03,04,04,50,4.80
2020,03,04,04,51,4.90
2020,03,04,04,52,3.50
2020,03,04,04,53,3.60
2020,03,04,04,54,1.10
2020,03,04,04,55,0.00
2020,03,04,04,56,0.10
2020,03,04,04,57,1.90
2020,03,04,04,58,0.50
2020,03,04,04,59,0.00
2020,03,04,05,00,0.00
2020,03,04,05,01,0.00
2020,03,04,05,02,0.00
2020,03,04,05,03,1.20
2020,03,04,05,04,3.30
2020,03,04,05,05,3.60
2020,03,04,05,06,3.20
2020,03,04,05,07,2.40
2020,03,04,05,08,3.30
2020,03,04,05,09,3.50
2020,03,04,05,10,2.40
2020,03,04,05,11,1.90
2020,03,04,05,12,1.50
2020,03,04,05,13,0.90
2020,03,04,05,14,0.00
2020,03,04,05,15,0.00
2020,03,04,05,16,0.00
2020,03,04,05,17,0.00
2020,03,04,05,18,0.00
2020,03,04,05,19,0.00
2020,03,04,05,20,0.00
2020,03,04,05,21,0.00
2020,03,04,05,22,0.00
2020,03,04,05,23,0.00
2020,03,04,05,24,0.00
2020,03,04,05,25,0.00
2020,03,04,05,26,0.00
2020,03,04,05,27,0.00
2020,03,04,05,28,0.00
2020,03,04,05,29,0.00
2020,03,04,05,30,3.00
2020,03,04,05,31,5.80
2020,03,04,05,32,6.70
2020,03,04,05,33,5.90
2020,03,04,05,34,4.50
2020,03,04,05,35,3.00
2020,03,04,05,36,1.90
2020,03,04,05,37,1.00
2020,03,04,05,38,0.90
2020,03,04,05,39,5.30
2020,03,04,05,40,4.40
2020,03,04,05,41,4.60
2020,03,04,05,42,2.50
2020,03,04,05,43,2.50
2020,03,04,05,44,4.20
2020,03,04,05,45,3.50
2020,03,04,05,46,3.00
2020,03,04,05,47,3.60
2020,03,04,05,48,2.50
2020,03,04,05,49,2.00
2020,03,04,05,50,1.60
2020,03,04,05,51,1.30
2020,03,04,05,52,1.10
2020,03,04,05,53,2.00
2020,03,04,05,54,3.60
2020,03,04,05,55,4.10
2020,03,04,05,56,3.00
2020,03,04,05,57,1.60
2020,03,04,05,58,1.60
2020,03,04,05,59,0.70
2020,03,04,06,00,1.60
2020,03,04,06,01,1.80
2020,03,04,06,02,2.20
2020,03,04,06,03,1.60
2020,03,04,06,04,3.90
2020,03,04,06,05,3.60
2020,03,04,06,06,3.30
2020,03,04,06,07,2.10
2020,03,04,06,08,2.30
2020,03,04,06,09,3.50
2020,03,04,06,10,3.90
2020,03,04,06,11,4.30
2020,03,04,06,12,5.20
2020,03,04,06,13,6.10
2020,03,04,06,14,5.10
2020,03,04,06,15,2.80
2020,03,04,06,16,3.20
2020,03,04,06,17,2.80
2020,03,04,06,18,2.90
2020,03,04,06,19,2.50
2020,03,04,06,20,1.40
2020,03,04,06,21,4.20
2020,03,04,06,22,6.40
2020,03,04,06,23,5.80
2020,03,04,06,24,3.90
2020,03,04,06,25,3.90
2020,03,04,06,26,3.20
2020,03,04,06,27,3.50
2020,03,04,06,28,3.40
2020,03,04,06,29,5.30
2020,03,04,06,30,5.90
2020,03,04,06,31,5.10
2020,03,04,06,32,4.30
2020,03,04,06,33,5.60
2020,03,04,06,34,5.00
2020,03,04,06,35,5.40
2020,03,04,06,36,4.60
2020,03,04,06,37,5.60
2020,03,04,06,38,4.90
2020,03,04,06,39,4.30
2020,03,04,06,40,5.40
2020,03,04,06,41,5.50
2020,03,04,06,42,5.20
2020,03,04,06,43,4.60
2020,03,04,06,44,4.80
2020,03,04,06,45,4.10
2020,03,04,06,46,3.80
2020,03,04,06,47,4.20
2020,03,04,06,48,3.70
2020,03,04,06,49,3.90
2020,03,04,06,50,5.50
2020,03,04,06,51,4.90
2020,03,04,06,52,4.50
2020,03,04,06,53,4.40
2020,03,04,06,54,4.30
2020,03,04,06,55,5.20
2020,03,04,06,56,5.90
2020,03,04,06,57,5.90
2020,03,04,06,58,5.30
2020,03,04,06,59,6.30
2020,03,04,07,00,5.90
2020,03,04,07,01,4.30
2020,03,04,07,02,5.00
2020,03,04,07,03,5.20
2020,03,04,07,04,4.00
2020,03,04,07,05,5.40
2020,03,04,07,06,6.20
2020,03,04,07,07,4.60
2020,03,04,07,08,4.50
2020,03,04,07,09,4.60
2020,03,04,07,10,5.30
2020,03,04,07,11,5.00
2020,03,04,07,12,4.70
2020,03,04,07,13,3.80
2020,03,04,07,14,4.80
2020,03,04,07,15,4.00
2020,03,04,07,16,4.90
2020,03,04,07,17,3.80
2020,03,04,07,18,4.40
2020,03,04,07,19,3.80
2020,03,04,07,20,5.40
2020,03,04,07,21,3.30
2020,03,04,07,22,3.70
2020,03,04,07,23,3.20
2020,03,04,07,24,3.30
2020,03,04,07,25,3.80
2020,03,04,07,26,3.50
2020,03,04,07,27,2.70
2020,03,04,07,28,2.80
2020,03,04,07,29,2.70
2020,03,04,07,30,2.30
2020,03,04,07,31,3.30
2020,03,04,07,32,3.50
2020,03,04,07,33,3.60
2020,03,04,07,34,3.50
2020,03,04,07,35,3.10
2020,03,04,07,36,4.80
2020,03,04,07,37,3.80
2020,03,04,07,38,3.30
2020,03,04,07,39,3.10
2020,03,04,07,40,3.60
2020,03,04,07,41,3.50
2020,03,04,07,42,3.10
2020,03,04,07,43,3.10
2020,03,04,07,44,3.40
2020,03,04,07,45,3.20
2020,03,04,07,46,3.80
2020,03,04,07,47,4.80
2020,03,04,07,48,4.20
2020,03,04,07,49,4.00
2020,03,04,07,50,4.90
2020,03,04,07,51,4.80
2020,03,04,07,52,4.70
2020,03,04,07,53,5.00
2020,03,04,07,54,4.70
2020,03,04,07,55,5.00
2020,03,04,07,56,5.80
2020,03,04,07,57,3.70
2020,03,04,07,58,4.00
2020,03,04,07,59,4.50
2020,03,04,08,00,4.90
2020,03,04,08,01,4.50
2020,03,04,08,02,3.50
2020,03,04,08,03,3.70
2020,03,04,08,04,4.90
2020,03,04,08,05,4.60
2020,03,04,08,06,4.00
2020,03,04,08,07,3.80
2020,03,04,08,08,3.70
2020,03,04,08,09,4.00
2020,03,04,08,10,3.70
2020,03,04,08,11,3.60
2020,03,04,08,12,3.60
2020,03,04,08,13,4.00
2020,03,04,08,14,4.00
2020,03,04,08,15,4.00
2020,03,04,08,16,4.50
2020,03,04,08,17,4.10
2020,03,04,08,18,4.50
2020,03,04,08,19,3.70
2020,03,04,08,20,3.90
2020,03,04,08,21,4.40
2020,03,04,08,22,3.60
2020,03,04,08,23,3.90
2020,03,04,08,24,3.60
2020,03,04,08,25,3.40
2020,03,04,08,26,3.50
2020,03,04,08,27,3.50
2020,03,04,08,28,3.60
2020,03,04,08,29,3.40
2020,03,04,08,30,3.50
2020,03,04,08,31,4.20
2020,03,04,08,32,3.60
2020,03,04,08,33,3.60
2020,03,04,08,34,4.00
2020,03,04,08,35,3.40
2020,03,04,08,36,2.70
2020,03,04,08,37,2.90
2020,03,04,08,38,2.80
2020,03,04,08,39,3.30
2020,03,04,08,40,3.50
2020,03,04,08,41,3.00
2020,03,04,08,42,2.70
2020,03,04,08,43,3.20
2020,03,04,08,44,2.90
2020,03,04,08,45,3.10
2020,03,04,08,46,3.30
2020,03,04,08,47,3.60
2020,03,04,08,48,3.10
2020,03,04,08,49,3.00
2020,03,04,08,50,2.80
2020,03,04,08,51,3.10
2020,03,04,08,52,2.40
2020,03,04,08,53,2.90
2020,03,04,08,54,2.70
2020,03,04,08,55,2.50
2020,03,04,08,56,2.40
2020,03,04,08,57,2.20
2020,03,04,08,58,2.50
2020,03,04,08,59,2.60
2020,03,04,09,00,3.20
2020,03,04,09,01,3.10
2020,03,04,09,02,3.20
2020,03,04,09,03,2.50
2020,03,04,09,04,2.60
2020,03,04,09,05,2.40
2020,03,04,09,06,2.70
2020,03,04,09,07,2.40
2020,03,04,09,08,2.60
2020,03,04,09,09,1.90
2020,03,04,09,10,1.10
2020,03,04,09,11,1.40
2020,03,04,09,12,0.50
2020,03,04,09,13,0.00
2020,03,04,09,14,0.10
2020,03,04,09,15,0.90
2020,03,04,09,16,0.80
2020,03,04,09,17,0.20
2020,03,04,09,18,1.00
2020,03,04,09,19,1.00
2020,03,04,09,20,1.70
2020,03,04,09,21,1.40
2020,03,04,09,22,0.60
2020,03,04,09,23,1.30
2020,03,04,09,24,0.80
2020,03,04,09,25,0.10
2020,03,04,09,26,0.40
2020,03,04,09,27,0.20
2020,03,04,09,28,0.10
2020,03,04,09,29,0.80
2020,03,04,09,30,0.60
2020,03,04,09,31,0.20
2020,03,04,09,32,0.20
2020,03,04,09,33,0.00
2020,03,04,09,34,0.00
2020,03,04,09,35,0.30
2020,03,04,09,36,1.00
2020,03,04,09,37,0.70
2020,03,04,09,38,1.00
2020,03,04,09,39,0.00
2020,03,04,09,40,0.00
2020,03,04,09,41,0.00
2020,03,04,09,42,0.00
2020,03,04,09,43,0.40
2020,03,04,09,44,2.00
2020,03,04,09,45,0.50
2020,03,04,09,46,0.50
2020,03,04,09,47,0.00
2020,03,04,09,48,0.00
2020,03,04,09,49,0.00
2020,03,04,09,50,0.00
2020,03,04,09,51,0.00
2020,03,04,09,52,0.00
2020,03,04,09,53,0.00
2020,03,04,09,54,0.00
2020,03,04,09,55,0.00
2020,03,04,09,56,0.00
2020,03,04,09,57,0.00
2020,03,04,09,58,0.00
2020,03,04,09,59,0.00
2020,03,04,10,00,0.00
2020,03,04,10,01,0.00
2020,03,04,10,02,0.00
2020,03,04,10,03,0.00
2020,03,04,10,04,0.00
2020,03,04,10,05,0.00
2020,03,04,10,06,0.00
2020,03,04,10,07,0.00
2020,03,04,10,08,0.00
2020,03,04,10,09,0.00
2020,03,04,10,10,0.00
2020,03,04,10,11,0.00
2020,03,04,10,12,0.00
2020,03,04,10,13,0.00
2020,03,04,10,14,0.00
2020,03,04,10,15,0.00
2020,03,04,10,16,0.00
2020,03,04,10,17,0.00
2020,03,04,10,18,0.00
2020,03,04,10,19,0.00
2020,03,04,10,20,0.00
2020,03,04,10,21,0.00
2020,03,04,10,22,0.00
2020,03,04,10,23,0.00
2020,03,04,10,24,0.00
2020,03,04,10,25,0.00
2020,03,04,10,26,0.00
2020,03,04,10,27,0.00
2020,03,04,10,28,0.00
2020,03,04,10,29,0.00
2020,03,04,10,30,0.00
2020,03,04,10,31,0.00
2020,03,04,10,32,0.00
2020,03,04,10,33,0.00
2020,03,04,10,34,0.00
2020,03,04,10,35,0.00
2020,03,04,10,36,0.00
2020,03,04,10,37,0.00
2020,03,04,10,38,0.00
2020,03,04,10,39,0.00
2020,03,04,10,40,0.00
2020,03,04,10,41,0.00
2020,03,04,10,42,0.00
2020,03,04,10,43,0.00
2020,03,04,10,44,0.00
2020,03,04,10,45,0.00
2020,03,04,10,46,0.00
2020,03,04,10,47,0.00
2020,03,04,10,48,0.00
2020,03,04,10,49,0.00
2020,03,04,10,50,0.00
2020,03,04,10,51,0.00
2020,03,04,10,52,0.00
2020,03,04,10,53,0.00
2020,03,04,10,54,0.00
2020,03,04,10,55,0.00
2020,03,04,10,56,0.00
2020,03,04,10,57,0.00
2020,03,04,10,58,0.00
2020,03,04,10,59,0.00
2020,03,04,11,00,0.00
2020,03,04,11,01,0.00
2020,03,04,11,02,0.00
2020,03,04,11,03,0.00
2020,03,04,11,04,0.00
2020,03,04,11,05,0.00
2020,03,04,11,06,0.00
2020,03,04,11,07,0.00
2020,03,04,11,08,0.00
2020,03,04,11,09,0.00
2020,03,04,11,10,0.00
2020,03,04,11,11,0.00
2020,03,04,11,12,0.00
2020,03,04,11,13,0.00
2020,03,04,11,14,0.00
2020,03,04,11,15,0.00
2020,03,04,11,16,0.00
2020,03,04,11,17,0.00
2020,03,04,11,18,0.00
2020,03,04,11,19,0.00
2020,03,04,11,20,0.00
2020,03,04,11,21,0.00
2020,03,04,11,22,0.00
2020,03,04,11,23,0.00
2020,03,04,11,24,0.00
2020,03,04,11,25,0.00
2020,03,04,11,26,0.00
2020,03,04,11,27,0.00
2020,03,04,11,28,0.00
2020,03,04,11,29,0.00
2020,03,04,11,30,0.00
2020,03,04,11,31,1.40
2020,03,04,11,32,3.70
2020,03,04,11,33,1.90
2020,03,04,11,34,2.60
2020,03,04,11,35,2.80
2020,03,04,11,36,2.90
2020,03,04,11,37,1.90
2020,03,04,11,38,1.90
2020,03,04,11,39,3.20
2020,03,04,11,40,2.60
2020,03,04,11,41,1.00
2020,03,04,11,42,0.00
2020,03,04,11,43,0.00
2020,03,04,11,44,0.00
2020,03,04,11,45,0.00
2020,03,04,11,46,1.60
2020,03,04,11,47,4.00
2020,03,04,11,48,2.10
2020,03,04,11,49,1.80
2020,03,04,11,50,2.50
2020,03,04,11,51,2.70
2020,03,04,11,52,1.90
2020,03,04,11,53,1.90
2020,03,04,11,54,3.00
2020,03,04,11,55,3.30
2020,03,04,11,56,1.70
2020,03,04,11,57,0.90
2020,03,04,11,58,0.70
2020,03,04,11,59,2.50
2020,03,04,12,00,0.20
2020,03,04,12,01,1.90
2020,03,04,12,02,0.00
2020,03,04,12,03,0.00
2020,03,04,12,04,2.70
2020,03,04,12,05,0.30
2020,03,04,12,06,0.00
2020,03,04,12,07,0.00
2020,03,04,12,08,0.00
2020,03,04,12,09,0.00
2020,03,04,12,10,0.00
2020,03,04,12,11,1.80
2020,03,04,12,12,3.80
2020,03,04,12,13,1.90
2020,03,04,12,14,2.70
2020,03,04,12,15,2.80
2020,03,04,12,16,2.40
2020,03,04,12,17,2.20
2020,03,04,12,18,2.50
2020,03,04,12,19,2.30
2020,03,04,12,20,2.40
2020,03,04,12,21,2.80
2020,03,04,12,22,2.60
2020,03,04,12,23,2.60
2020,03,04,12,24,2.30
2020,03,04,12,25,3.00
2020,03,04,12,26,2.90
2020,03,04,12,27,3.30
2020,03,04,12,28,3.90
2020,03,04,12,29,2.70
2020,03,04,12,30,3.00
2020,03,04,12,31,3.10
2020,03,04,12,32,2.60
2020,03,04,12,33,2.00
2020,03,04,12,34,2.20
2020,03,04,12,35,1.80
2020,03,04,12,36,2.80
2020,03,04,12,37,2.70
2020,03,04,12,38,3.10
2020,03,04,12,39,0.80
2020,03,04,12,40,0.00
2020,03,04,12,41,0.00
2020,03,04,12,42,0.00
2020,03,04,12,43,0.00
2020,03,04,12,44,1.10
2020,03,04,12,45,2.70
2020,03,04,12,46,2.00
2020,03,04,12,47,0.00
2020,03,04,12,48,0.00
2020,03,04,12,49,1.70
2020,03,04,12,50,2.30
2020,03,04,12,51,2.20
2020,03,04,12,52,3.80
2020,03,04,12,53,2.60
2020,03,04,12,54,2.90
2020,03,04,12,55,2.80
2020,03,04,12,56,2.60
2020,03,04,12,57,3.20
2020,03,04,12,58,2.70
2020,03,04,12,59,3.10
2020,03,04,13,00,2.50
2020,03,04,13,01,2.00
2020,03,04,13,02,3.10
2020,03,04,13,03,3.40
2020,03,04,13,04,3.10
2020,03,04,13,05,3.00
2020,03,04,13,06,2.50
2020,03,04,13,07,2.10
2020,03,04,13,08,3.00
2020,03,04,13,09,2.90
2020,03,04,13,10,1.70
2020,03,04,13,11,3.40
2020,03,04,13,12,3.10
2020,03,04,13,13,3.10
2020,03,04,13,14,2.80
2020,03,04,13,15,2.60
2020,03,04,13,16,2.50
2020,03,04,13,17,3.00
2020,03,04,13,18,3.10
2020,03,04,13,19,3.00
2020,03,04,13,20,2.90
2020,03,04,13,21,2.20
2020,03,04,13,22,2.70
2020,03,04,13,23,2.30
2020,03,04,13,24,3.00
2020,03,04,13,25,2.40
2020,03,04,13,26,3.30
2020,03,04,13,27,2.90
2020,03,04,13,28,3.00
2020,03,04,13,29,3.50
2020,03,04,13,30,2.60
2020,03,04,13,31,2.00
2020,03,04,13,32,1.50
2020,03,04,13,33,2.70
2020,03,04,13,34,3.30
2020,03,04,13,35,2.30
2020,03,04,13,36,2.70
2020,03,04,13,37,2.90
2020,03,04,13,38,0.60
2020,03,04,13,39,2.60
2020,03,04,13,40,3.00
2020,03,04,13,41,4.30
2020,03,04,13,42,2.70
2020,03,04,13,43,3.10
2020,03,04,13,44,3.60
2020,03,04,13,45,2.60
2020,03,04,13,46,2.00
2020,03,04,13,47,3.60
2020,03,04,13,48,2.80
2020,03,04,13,49,2.80
2020,03,04,13,50,2.70
2020,03,04,13,51,2.80
2020,03,04,13,52,2.80
2020,03,04,13,53,2.90
2020,03,04,13,54,1.60
2020,03,04,13,55,2.70
2020,03,04,13,56,3.10
2020,03,04,13,57,2.90
2020,03,04,13,58,3.30
2020,03,04,13,59,3.10
2020,03,04,14,00,3.20
2020,03,04,14,01,3.50
2020,03,04,14,02,3.40
2020,03,04,14,03,3.10
2020,03,04,14,04,3.00
2020,03,04,14,05,3.70
2020,03,04,14,06,3.60
2020,03,04,14,07,3.10
2020,03,04,14,08,3.30
2020,03,04,14,09,3.70
2020,03,04,14,10,3.10
2020,03,04,14,11,2.90
2020,03,04,14,12,3.10
2020,03,04,14,13,4.10
2020,03,04,14,14,3.50
2020,03,04,14,15,3.10
2020,03,04,14,16,4.20
2020,03,04,14,17,2.80
2020,03,04,14,18,4.00
2020,03,04,14,19,3.50
2020,03,04,14,20,3.30
2020,03,04,14,21,3.30
2020,03,04,14,22,2.70
2020,03,04,14,23,2.80
2020,03,04,14,24,3.00
2020,03,04,14,25,2.70
2020,03,04,14,26,2.40
2020,03,04,14,27,1.90
2020,03,04,14,28,2.80
2020,03,04,14,29,3.00
2020,03,04,14,30,3.00
2020,03,04,14,31,3.40
2020,03,04,14,32,3.10
2020,03,04,14,33,3.00
2020,03,04,14,34,3.10
2020,03,04,14,35,3.30
2020,03,04,14,36,3.70
2020,03,04,14,37,3.00
2020,03,04,14,38,2.70
2020,03,04,14,39,3.80
2020,03,04,14,40,3.60
2020,03,04,14,41,4.20
2020,03,04,14,42,4.60
2020,03,04,14,43,5.70
2020,03,04,14,44,3.70
2020,03,04,14,45,4.00
2020,03,04,14,46,2.80
2020,03,04,14,47,1.80
2020,03,04,14,48,4.70
2020,03,04,14,49,2.90
2020,03,04,14,50,3.10
2020,03,04,14,51,5.20
2020,03,04,14,52,6.10
2020,03,04,14,53,2.70
2020,03,04,14,54,2.80
2020,03,04,14,55,3.00
2020,03,04,14,56,2.70
2020,03,04,14,57,3.80
2020,03,04,14,58,3.10
2020,03,04,14,59,2.80
2020,03,04,15,00,3.40
2020,03,04,15,01,3.80
2020,03,04,15,02,3.40
2020,03,04,15,03,3.50
2020,03,04,15,04,3.70
2020,03,04,15,05,3.50
2020,03,04,15,06,2.80
2020,03,04,15,07,2.50
2020,03,04,15,08,2.10
2020,03,04,15,09,2.20
2020,03,04,15,10,2.80
2020,03,04,15,11,3.00
2020,03,04,15,12,4.20
2020,03,04,15,13,2.80
2020,03,04,15,14,3.50
2020,03,04,15,15,3.50
2020,03,04,15,16,3.10
2020,03,04,15,17,2.90
2020,03,04,15,18,3.10
2020,03,04,15,19,3.10
2020,03,04,15,20,2.90
2020,03,04,15,21,3.80
2020,03,04,15,22,2.30
2020,03,04,15,23,3.20
2020,03,04,15,24,2.80
2020,03,04,15,25,1.50
2020,03,04,15,26,2.50
2020,03,04,15,27,2.40
2020,03,04,15,28,2.80
2020,03,04,15,29,0.40
2020,03,04,15,30,0.00
2020,03,04,15,31,0.00
2020,03,04,15,32,1.90
2020,03,04,15,33,2.30
2020,03,04,15,34,2.40
2020,03,04,15,35,1.80
2020,03,04,15,36,1.90
2020,03,04,15,37,3.20
2020,03,04,15,38,2.70
2020,03,04,15,39,3.00
2020,03,04,15,40,3.20
2020,03,04,15,41,2.90
2020,03,04,15,42,2.50
2020,03,04,15,43,2.10
2020,03,04,15,44,2.00
2020,03,04,15,45,2.20
2020,03,04,15,46,1.40
2020,03,04,15,47,2.40
2020,03,04,15,48,1.90
2020,03,04,15,49,2.80
2020,03,04,15,50,3.80
2020,03,04,15,51,2.00
2020,03,04,15,52,2.60
2020,03,04,15,53,2.60
2020,03,04,15,54,2.70
2020,03,04,15,55,3.30
2020,03,04,15,56,3.10
2020,03,04,15,57,3.40
2020,03,04,15,58,2.60
2020,03,04,15,59,2.20
2020,03,04,16,00,2.40
2020,03,04,16,01,1.50
2020,03,04,16,02,0.00
2020,03,04,16,03,0.00
2020,03,04,16,04,0.00
2020,03,04,16,05,0.00
2020,03,04,16,06,0.00
2020,03,04,16,07,0.00
2020,03,04,16,08,0.00
2020,03,04,16,09,0.00
2020,03,04,16,10,0.00
2020,03,04,16,11,0.00
2020,03,04,16,12,0.00
2020,03,04,16,13,0.00
2020,03,04,16,14,0.00
2020,03,04,16,15,0.00
2020,03,04,16,16,0.00
2020,03,04,16,17,0.00
2020,03,04,16,18,0.00
2020,03,04,16,19,0.00
2020,03,04,16,20,0.00
2020,03,04,16,21,0.00
2020,03,04,16,22,0.00
2020,03,04,16,23,0.00
2020,03,04,16,24,0.00
2020,03,04,16,25,0.00
2020,03,04,16,26,0.00
2020,03,04,16,27,0.00
2020,03,04,16,28,0.00
2020,03,04,16,29,0.00
2020,03,04,16,30,0.00
2020,03,04,16,31,0.00
2020,03,04,16,32,0.00
2020,03,04,16,33,0.00
2020,03,04,16,34,0.00
2020,03,04,16,35,0.00
2020,03,04,16,36,0.00
2020,03,04,16,37,0.00
2020,03,04,16,38,0.00
2020,03,04,16,39,0.00
2020,03,04,16,40,0.00
2020,03,04,16,41,0.00
2020,03,04,16,42,0.00
2020,03,04,16,43,0.00
2020,03,04,16,44,0.00
2020,03,04,16,45,0.00
2020,03,04,16,46,0.00
2020,03,04,16,47,0.00
2020,03,04,16,48,0.00
2020,03,04,16,49,0.00
2020,03,04,16,50,0.00
2020,03,04,16,51,0.00
2020,03,04,16,52,0.00
2020,03,04,16,53,0.00
2020,03,04,16,54,0.00
2020,03,04,16,55,2.50
2020,03,04,16,56,0.90
2020,03,04,16,57,0.80
2020,03,04,16,58,0.00
2020,03,04,16,59,0.00
2020,03,04,17,00,0.00
2020,03,04,17,01,0.00
2020,03,04,17,02,0.00
2020,03,04,17,03,0.00
2020,03,04,17,04,0.00
2020,03,04,17,05,0.00
2020,03,04,17,06,0.00
2020,03,04,17,07,0.00
2020,03,04,17,08,0.00
2020,03,04,17,09,0.00
2020,03,04,17,10,0.00
2020,03,04,17,11,0.00
2020,03,04,17,12,0.00
2020,03,04,17,13,0.00
2020,03,04,17,14,0.00
2020,03,04,17,15,0.00
2020,03,04,17,16,0.00
2020,03,04,17,17,0.00
2020,03,04,17,18,0.00
2020,03,04,17,19,0.00
2020,03,04,17,20,1.50
2020,03,04,17,21,2.70
2020,03,04,17,22,1.10
2020,03,04,17,23,2.30
2020,03,04,17,24,1.30
2020,03,04,17,25,3.20
2020,03,04,17,26,1.50
2020,03,04,17,27,2.00
2020,03,04,17,28,1.90
2020,03,04,17,29,1.20
2020,03,04,17,30,1.70
2020,03,04,17,31,1.90
2020,03,04,17,32,1.60
2020,03,04,17,33,2.60
2020,03,04,17,34,1.50
2020,03,04,17,35,1.60
2020,03,04,17,36,0.00
2020,03,04,17,37,0.00
2020,03,04,17,38,0.00
2020,03,04,17,39,0.00
2020,03,04,17,40,0.00
2020,03,04,17,41,0.00
2020,03,04,17,42,0.00
2020,03,04,17,43,0.00
2020,03,04,17,44,0.00
2020,03,04,17,45,1.50
2020,03,04,17,46,0.20
2020,03,04,17,47,0.00
2020,03,04,17,48,0.00
2020,03,04,17,49,0.60
2020,03,04,17,50,2.30
2020,03,04,17,51,1.10
2020,03,04,17,52,1.70
2020,03,04,17,53,2.40
2020,03,04,17,54,2.10
2020,03,04,17,55,0.60
2020,03,04,17,56,1.70
2020,03,04,17,57,1.40
2020,03,04,17,58,2.70
2020,03,04,17,59,2.40
2020,03,04,18,00,0.90
2020,03,04,18,01,1.30
2020,03,04,18,02,2.00
2020,03,04,18,03,1.40